Regional Weather Roundup
Issued by NWS Upton, NY

Current Version | Previous Version | Text Only | Print | Product List | Glossary Off
Versions: 1 2 3 4 5 6 7 8 9 10 11 12 13 14 15 16 17 18 19 20 21 22 23 24 25 26
000 ASUS41 KOKX 181808 RWROKX REGIONAL WEATHER ROUNDUP NATIONAL WEATHER SERVICE NEW YORK NY 100 PM EST WED JAN 18 2017 NOTE: "FAIR" INDICATES FEW OR NO CLOUDS BELOW 12,000 FEET WITH NO SIGNIFICANT WEATHER AND/OR OBSTRUCTIONS TO VISIBILITY. NYZ071-072-176-178-NJZ106-104-181900- NEW YORK CITY METRO AREA CITY SKY/WX TMP DP RH WIND PRES REMARKS Central Park CLOUDY 40 38 93 N5 29.94R Wall St Helipt CLOUDY 43 37 81 CALM 29.93 Bronx Bot Gard NOT AVBL LaGuardia APRT CLOUDY 44 38 79 NE14 29.91R Kennedy INTL CLOUDY 42 36 79 N10 29.92R Breezy Point NOT AVBL Newark/Liberty CLOUDY 42 39 89 N9 29.92R Teterboro CLOUDY 42 38 85 N9 29.91R FOG $$ NYZ177-179-078>081-181900- LONG ISLAND NEW YORK CITY SKY/WX TMP DP RH WIND PRES REMARKS Jones Beach NOT AVBL Matinecock PT NOT AVBL Farmingdale CLOUDY 40 37 89 N10 29.90S WCI 33 MacArthur/ISP CLOUDY 40 39 97 N13 29.88F WCI 32 Shirley CLOUDY 40 38 93 N8 29.90R WCI 34 Westhampton CLOUDY 41 37 86 N10 29.89S Southampton NOT AVBL Bridgehampton NOT AVBL East Hampton CLOUDY 40 38 93 NE9G16 29.87S WCI 34 Montauk N/A 41 39 93 NE10 29.88S $$ NYZ052-065-067-181900- HUDSON VALLEY CITY SKY/WX TMP DP RH WIND PRES REMARKS White Plains CLOUDY 39 36 89 N6 29.90R FOG WCI 35 Newburgh CLOUDY 39 39 100 NE7 29.93F FOG WCI 34 Montgomery CLOUDY 40 36 86 NE8 29.92R WCI 34 Poughkeepsie CLOUDY 38 36 92 N6 29.94R WCI 33 Albany DRZL/FOG 35 32 88 N3 29.97R VSB 1 $$ NJZ001-105-106-008-010-013-015-019>022-104-181900- NEW JERSEY CITY SKY/WX TMP DP RH WIND PRES REMARKS Newark/Liberty CLOUDY 42 39 89 N9 29.92R Teterboro CLOUDY 42 38 85 N9 29.91R FOG Caldwell CLOUDY 41 37 86 NE5 29.93R Somerville CLOUDY 43 37 79 N6 29.91R Linden CLOUDY 41 37 86 CALM 29.93R Sussex CLOUDY 39 37 92 N3 29.93R Andover N/A 37 35 92 NE3 29.93R Trenton CLOUDY 43 40 89 VRB7 29.91S Millville CLOUDY 47 45 93 N9 29.90S Atlantic City CLOUDY 45 41 86 NW10 29.90S Wrightstown NOT AVBL Toms River CLOUDY 41 40 96 N10 29.91S FOG Belmar CLOUDY 40 40 100 N10 29.91S FOG WCI 33 $$ PAZ047>061-062-071-181900- EASTERN PENNSYLVANIA CITY SKY/WX TMP DP RH WIND PRES REMARKS Philadelphia CLOUDY 47 40 76 N9 29.93R Allentown CLOUDY 43 38 82 CALM 29.93R Scranton LGT RAIN 39 39 100 W5 29.92R FOG $$ CTZ002-004>006-009-010-012-RIZ004-006-007-MAZ004-011-015-181900- SOUTHERN NEW ENGLAND IN CT CITY SKY/WX TMP DP RH WIND PRES REMARKS Bradley INTL DRIZZLE 36 35 96 N10 29.95R FOG WCI 28 Hartford CLOUDY 37 36 96 N8G18 29.94R FOG WCI 31 Danbury CLOUDY 38 35 89 N7 29.93R FOG WCI 33 Wtrbury/Oxford CLOUDY 36 32 87 NE9 29.91S FOG WCI 29 Bridgeport CLOUDY 42 36 79 N13 29.91R Meriden CLOUDY 39 35 86 N9 29.93R FOG WCI 33 New Haven CLOUDY 39 36 89 N14 29.91R WCI 31 Chester CLOUDY 39 37 93 N7 29.89S WCI 34 Groton CLOUDY 42 38 85 N9 29.88S Wilimantic CLOUDY 40 37 89 N8 29.92S WCI 34 IN RI CITY SKY/WX TMP DP RH WIND PRES REMARKS Providence LGT RAIN 41 39 93 NE10 29.91S FOG Block Island NOT AVBL Westerly CLOUDY 42 38 85 N9 29.89S IN MA CITY SKY/WX TMP DP RH WIND PRES REMARKS Boston LGT RAIN 39 39 100 E18 29.96S FOG WCI 30 Worcester FOG 31 29 92 NE8 29.91S VSB 1 WCI 23 Westfield LGT RAIN 36 50 100 N10 29.95S WCI 28 Provincetown LGT RAIN 40 39 97 E18 29.92S FOG WCI 31 Nantucket LGT RAIN 43 40 89 E17 29.83F FOG $$ ANZ330-335-338-340-345-350-353-355-181900- COASTAL MARINE OBSERVATIONS STATION/POSITION TIME SKY/WX TEMP WIND PRES VSBY WAVE AIR SEA DIR/SP/G HT/PER (UTC) (F) (DEG/KT/KT) (MB) (MI) (FT/S) NY HARB ENTRANCE 1650 41 44 20/ 14/ 16 1011.8 4/ 6 20 S FIRE ISLAND 1750 42 45 20/ 17/ 19 1011.0 6/ 6 GREAT SOUTH BAY NOT AVBL 23 SSW MONTAUK P 1650 42 47 40/ 21/ 27 1010.5 7/ 7 15 E BARNEGAT LI 1730 47 N/A 4/ 6 HUDSON CANYON 1650 51 53 1008.5 4/ 8 KINGS POINT 1736 40 38 1012.6 EXECUTION ROCKS 1745 40 10/ 8/ 12 N/A CENTRAL LI SOUND 1715 40 40/ 12/ 14 N/A 2/ 6 EASTERN LI SOUND NOT AVBL ROBBINS REEF 1736 40 350/ 7/ 8 1013.2 $$ >>>>>>>>>>>>>>>>>>>>>>>>>>>> KEY <<<<<<<<<<<<<<<<<<<<<<<<<<< > < > SKY/WX - Sky Condition/Present Weather < > TMP - Temperature in Fahrenheit < > DP - Dew Point in Fahrenheit < > RH - Relative Humidity in Percent < > WIND - Direction (from) and Speed in MPH < > PRES - Mean Sea Level Pressure (inches of Hg) < > WCI - Wind Chill Index < > VSB - VISIBILITY IN MILES < > HX - HEAT INDEX < > TC - TEMPERATURE IN CELSIUS < > VRB - VARIABLE WIND DIRECTION < > < >>>>>>>>>>>>>>>>>>>>>>>>>>>> KEY <<<<<<<<<<<<<<<<<<<<<<<<<<<

USA.gov is the U.S. government's official web portal to all federal, state and local government web resources and services.